[[{"header":{"parameterUnit":"m.s-1","parameterCategory":1,"la1":30.2991,"la2":30.254,"lo1":-89.0895,"lo2":-89.0444,"dy":0.0017,"dx":0.0017,"nx":28,"ny":28,"refTime":"2025-02-06T09:00:00:Z","depth":0,"parameterNumber":2,"parameterNumberName":"U-component_of_WINDS"},"data":[0,0,0,0,0,0,0,0,0,0,0,0,0,0,0,0,0,0,0,0,0,0,0,0,0,0,0,0,0,0,0,0,0,0,0,0,0,0,0,0,0,0,0,0,0,0,0,0,0,0,0,0,0,0,0,0,0,0,-0.126,-0.126,0,-0.1297,-0.1297,-0.1298,-0.1337,-0.1338,-0.1338,-0.1339,-0.1375,-0.1376,-0.1376,0,0,0,0,0,0,0,0,0,0,0,0,0,-0.1221,-0.1222,-0.126,-0.126,-0.1261,-0.1297,-0.1297,-0.1298,-0.1337,-0.1338,-0.1338,-0.1339,-0.1375,-0.1376,-0.1376,0,0,0,0,0,0,0,0,0,0,0,0,0,-0.1246,-0.1222,-0.126,-0.1285,-0.1287,-0.1297,-0.1297,-0.1298,-0.1337,-0.1338,-0.1338,-0.1339,-0.1375,-0.1375,-0.1376,-0.1364,0,0,-0.1378,-0.1379,0,0,0,0,0,0,0,0,-0.1244,-0.1247,-0.1281,-0.1283,-0.1286,-0.1313,-0.1297,-0.132,-0.1337,-0.1318,-0.1339,-0.134,-0.1354,-0.1356,-0.1361,-0.1366,-0.1367,-0.1378,-0.1379,-0.1379,-0.1379,0,0,0,0,0,0,0,-0.1243,-0.1246,-0.1275,-0.1281,-0.1284,-0.1293,-0.1298,-0.1302,-0.1331,-0.132,-0.1323,-0.1326,-0.1355,-0.1361,-0.1362,-0.1368,-0.1378,-0.1379,-0.1379,-0.138,-0.1363,-0.1362,0,0,0,0,0,0,-0.1237,-0.1244,-0.1273,-0.1276,-0.1267,-0.1293,-0.1298,-0.1304,-0.1331,-0.1336,-0.1326,-0.1328,-0.1359,-0.1362,-0.1364,-0.1351,-0.1379,-0.138,-0.138,-0.1364,-0.1363,-0.1362,0,0,0,0,0,0,-0.1236,-0.124,-0.1272,-0.1261,-0.1266,-0.1293,-0.1299,-0.1304,-0.1309,-0.1335,-0.1341,-0.1326,-0.136,-0.1363,-0.1363,-0.1352,-0.138,-0.1381,-0.1365,-0.1363,-0.1362,-0.1324,0,0,0,0,0,0,-0.1235,-0.1239,-0.1235,-0.126,-0.1266,-0.1271,-0.1298,-0.1304,-0.131,-0.1314,-0.1337,-0.1341,-0.1361,-0.1362,-0.1364,-0.1354,-0.1381,-0.1366,-0.1364,-0.1363,-0.1326,-0.1322,-0.1318,0,0,0,0,0,-0.1234,-0.1223,-0.1235,-0.1238,-0.1262,-0.127,-0.1274,-0.1296,-0.1309,-0.1305,-0.1322,-0.1341,-0.1353,-0.1362,-0.1364,-0.1354,-0.1366,-0.1365,-0.1363,-0.1328,-0.1323,-0.1318,0,0,0,0,0,0,-0.1195,-0.1227,-0.124,-0.1237,-0.1251,-0.1277,-0.1273,-0.129,-0.13,-0.1302,-0.133,-0.1335,-0.1332,-0.1343,-0.1352,-0.1343,-0.1363,-0.1361,-0.1336,-0.133,-0.1326,-0.1323,-0.1382,0,0,0,0,0,-0.1186,-0.1191,-0.1219,-0.1213,-0.122,-0.1245,-0.1249,-0.1266,-0.1281,-0.1287,-0.1304,-0.1317,-0.1324,-0.1328,-0.1336,-0.1329,-0.1334,-0.1323,-0.1318,-0.1314,-0.1313,-0.1309,-0.1304,-0.1355,-0.1355,-0.1355,0,0,-0.1168,-0.1186,-0.1188,-0.1206,-0.1219,-0.1222,-0.1249,-0.1253,-0.1255,-0.1287,-0.1288,-0.1301,-0.1318,-0.1314,-0.1313,-0.1324,-0.13,-0.1312,-0.1309,-0.1309,-0.1306,-0.1301,-0.1297,-0.1354,-0.1354,-0.1354,0,0,-0.1137,-0.1151,-0.1148,-0.116,-0.1179,-0.1196,-0.1195,-0.1218,-0.1228,-0.123,-0.1254,-0.1257,-0.1269,-0.128,-0.1287,-0.1259,-0.1276,-0.1261,-0.1237,-0.1233,-0.1229,-0.1225,-0.1215,-0.121,-0.1259,-0.1259,-0.1259,0,-0.1112,-0.1119,-0.1144,-0.1146,-0.1153,-0.1182,-0.1179,-0.1189,-0.1209,-0.1213,-0.1224,-0.1239,-0.1253,-0.1251,-0.1244,-0.1249,-0.1249,-0.1258,-0.1228,-0.1224,-0.1221,-0.1211,-0.1207,-0.1257,-0.1257,-0.1257,-0.1257,0,-0.1087,-0.1091,-0.1087,-0.1105,-0.1112,-0.1111,-0.1135,-0.1139,-0.1154,-0.117,-0.1171,-0.1188,-0.12,-0.1201,-0.1216,-0.1201,-0.1207,-0.1223,-0.1242,-0.1214,-0.1205,-0.1201,-0.1254,-0.1255,-0.1255,-0.1256,0,0,-0.1032,-0.1065,-0.1062,-0.1071,-0.1093,-0.1097,-0.1097,-0.1109,-0.1111,-0.1124,-0.1124,-0.1133,-0.1147,-0.1155,-0.1172,-0.1168,-0.1144,-0.1184,-0.1185,-0.1175,-0.1128,-0.1115,-0.111,-0.1156,-0.1155,-0.1155,-0.1126,0,-0.1004,-0.1006,-0.1029,-0.1024,-0.1028,-0.1055,-0.1055,-0.1069,-0.1083,-0.1088,-0.1104,-0.1109,-0.1129,-0.1133,-0.1131,-0.1147,-0.1134,-0.115,-0.1155,-0.1155,-0.1149,-0.1106,-0.1092,-0.1064,-0.1123,-0.1122,-0.1122,0,-0.0972,-0.0983,-0.0978,-0.1,-0.1003,-0.1002,-0.1014,-0.1019,-0.1034,-0.1045,-0.1053,-0.1072,-0.1073,-0.1092,-0.1093,-0.1103,-0.1107,-0.1115,-0.1115,-0.1115,-0.1136,-0.1104,-0.1056,-0.1051,-0.1116,-0.1117,-0.1117,0,-0.0931,-0.0945,-0.0944,-0.095,-0.0976,-0.0975,-0.0985,-0.1002,-0.1007,-0.1017,-0.1021,-0.1031,-0.1036,-0.1044,-0.1065,-0.1077,-0.1063,-0.1084,-0.1071,-0.107,-0.1066,-0.1066,-0.1017,-0.107,-0.107,-0.107,-0.107,0,-0.0897,-0.0893,-0.0925,-0.0925,-0.0921,-0.0946,-0.0942,-0.0955,-0.0969,-0.0971,-0.0995,-0.0996,-0.1025,-0.1029,-0.1045,-0.1043,-0.1045,-0.1053,-0.1058,-0.1051,-0.1049,-0.1053,-0.1055,-0.1069,-0.1069,-0.1069,-0.1069,0,-0.0851,-0.0872,-0.0873,-0.0897,-0.0903,-0.0899,-0.0919,-0.0919,-0.0935,-0.0937,-0.0939,-0.0963,-0.0969,-0.0991,-0.1003,-0.1014,-0.1006,-0.1015,-0.1,-0.1003,-0.0988,-0.0989,-0.0939,-0.0933,-0.099,-0.099,-0.0989,0,-0.0827,-0.0824,-0.0848,-0.0851,-0.0861,-0.0865,-0.0871,-0.0896,-0.09,-0.0917,-0.0915,-0.0923,-0.0931,-0.0939,-0.0957,-0.0966,-0.0975,-0.0957,-0.0976,-0.0969,-0.0973,-0.0973,-0.0972,-0.0952,-0.0951,-0.0951,-0.095,0,-0.0782,-0.0793,-0.08,-0.081,-0.0816,-0.0826,-0.0837,-0.0838,-0.0865,-0.0869,-0.0875,-0.0881,-0.0893,-0.09,-0.0912,-0.0922,-0.094,-0.0944,-0.0941,-0.0934,-0.0925,-0.0929,-0.0988,-0.0945,-0.0945,-0.0946,-0.0946,-0.0946,-0.0746,-0.0745,-0.0761,-0.0768,-0.0778,-0.0788,-0.0789,-0.0804,-0.081,-0.0822,-0.0836,-0.084,-0.0855,-0.0873,-0.0882,-0.0885,-0.0896,-0.0892,-0.0891,-0.0889,-0.0885,-0.0925,-0.0888,-0.0888,-0.0888,-0.0888,-0.0888,0,-0.0702,-0.0714,-0.072,-0.0734,-0.0739,-0.0756,-0.0769,-0.0772,-0.0775,-0.0788,-0.0795,-0.0802,-0.0809,-0.0828,-0.0837,-0.0836,-0.0844,-0.0837,-0.0837,-0.0839,-0.0876,-0.0877,-0.083,-0.083,-0.083,-0.083,-0.083,-0.083,-0.0679,-0.0678,-0.069,-0.0694,-0.0706,-0.071,-0.0716,-0.0724,-0.0734,-0.0741,-0.0747,-0.0759,-0.0774,-0.0784,-0.0791,-0.0797,-0.0798,-0.0788,-0.0796,-0.0831,-0.0836,-0.0842,-0.0843,-0.0789,-0.0789,-0.0759,-0.0758,-0.0758]},{"header":{"parameterUnit":"m.s-1","parameterCategory":1,"la1":30.2991,"la2":30.254,"lo1":-89.0895,"lo2":-89.0444,"dy":0.0017,"dx":0.0017,"nx":28,"ny":28,"refTime":"2025-02-06T09:00:00:Z","depth":0,"parameterNumber":3,"parameterNumberName":"V-component_of_WINDS"},"data":[0,0,0,0,0,0,0,0,0,0,0,0,0,0,0,0,0,0,0,0,0,0,0,0,0,0,0,0,0,0,0,0,0,0,0,0,0,0,0,0,0,0,0,0,0,0,0,0,0,0,0,0,0,0,0,0,0,0,2.0736,2.0738,0,2.0877,2.0879,2.0881,2.092,2.0919,2.0918,2.0917,2.1062,2.1066,2.1071,0,0,0,0,0,0,0,0,0,0,0,0,0,2.0501,2.0505,2.0736,2.0738,2.074,2.0877,2.0879,2.0881,2.092,2.0919,2.0918,2.0917,2.106,2.1066,2.1071,0,0,0,0,0,0,0,0,0,0,0,0,0,2.0618,2.0506,2.0736,2.0776,2.0781,2.0877,2.0879,2.0881,2.092,2.0919,2.0917,2.0916,2.1059,2.1065,2.1072,2.1139,0,0,2.1093,2.1096,0,0,0,0,0,0,0,0,2.0612,2.0627,2.0768,2.0773,2.0779,2.088,2.0849,2.0968,2.092,2.0867,2.0917,2.0916,2.1002,2.1014,2.1043,2.1146,2.1152,2.1094,2.1098,2.1101,2.1103,0,0,0,0,0,0,0,2.0603,2.0621,2.0792,2.077,2.0777,2.0786,2.0802,2.0872,2.094,2.0872,2.0875,2.0891,2.1005,2.1036,2.1046,2.1154,2.1094,2.11,2.1104,2.1107,2.1319,2.132,0,0,0,0,0,0,2.0588,2.0614,2.0788,2.0796,2.0691,2.0792,2.0809,2.0848,2.0939,2.0952,2.0892,2.0892,2.1025,2.1038,2.1052,2.1136,2.1101,2.1107,2.1111,2.1317,2.1319,2.1321,0,0,0,0,0,0,2.0583,2.0604,2.0782,2.0706,2.073,2.0797,2.0841,2.0852,2.0883,2.0954,2.0967,2.0911,2.1024,2.1042,2.1117,2.1142,2.111,2.1117,2.1316,2.1318,2.132,2.1306,0,0,0,0,0,0,2.0576,2.0601,2.0628,2.0706,2.0733,2.0845,2.0843,2.0856,2.0895,2.0897,2.0976,2.0988,2.1025,2.1106,2.1124,2.1151,2.1122,2.1314,2.1317,2.1319,2.1304,2.1307,2.131,0,0,0,0,0,2.0568,2.0618,2.0629,2.0649,2.0768,2.0846,2.0862,2.0903,2.0897,2.0924,2.0969,2.0985,2.1136,2.1114,2.1134,2.1163,2.1312,2.1316,2.1319,2.1303,2.1307,2.131,0,0,0,0,0,0,2.0541,2.0629,2.0642,2.0719,2.0775,2.0853,2.0888,2.0906,2.0965,2.0964,2.1013,2.1031,2.1102,2.114,2.1114,2.1233,2.1224,2.1232,2.1206,2.121,2.1212,2.1202,2.1128,0,0,0,0,0,2.0544,2.06,2.0674,2.0735,2.0762,2.082,2.0856,2.0883,2.0943,2.0967,2.1018,2.1075,2.1136,2.1174,2.1234,2.1309,2.1327,2.1339,2.1342,2.1344,2.135,2.1393,2.14,2.1332,2.1332,2.1332,0,0,2.055,2.0606,2.0638,2.0731,2.0778,2.0835,2.084,2.09,2.0944,2.0976,2.105,2.1089,2.1157,2.1232,2.1268,2.1266,2.1373,2.1348,2.1349,2.1355,2.1397,2.1404,2.1409,2.1334,2.1334,2.1333,0,0,2.0593,2.064,2.0696,2.0742,2.0812,2.085,2.0863,2.0939,2.0966,2.1041,2.1066,2.1118,2.1221,2.1268,2.1305,2.1364,2.1381,2.1382,2.1397,2.1438,2.1443,2.1448,2.147,2.1477,2.1388,2.1388,2.1388,0,2.0593,2.068,2.0723,2.0782,2.0822,2.0854,2.0911,2.0954,2.104,2.1067,2.1063,2.1192,2.124,2.1327,2.1341,2.137,2.1387,2.1374,2.1439,2.1445,2.145,2.1471,2.1479,2.1387,2.1387,2.1388,2.1388,0,2.0677,2.0737,2.0774,2.0856,2.09,2.0958,2.101,2.1049,2.1072,2.111,2.1186,2.1244,2.1316,2.1338,2.1361,2.1428,2.1425,2.1429,2.1422,2.1455,2.1476,2.1484,2.1387,2.1387,2.1387,2.1387,0,0,2.0707,2.0811,2.0824,2.0862,2.0941,2.0989,2.1048,2.1118,2.1151,2.1208,2.126,2.1346,2.135,2.1392,2.1421,2.1457,2.15,2.1457,2.1459,2.1464,2.1578,2.1575,2.1584,2.1511,2.1513,2.1514,2.1573,0,2.076,2.0868,2.0907,2.0995,2.1052,2.1082,2.1133,2.1187,2.1224,2.1277,2.1318,2.1379,2.138,2.1405,2.1442,2.1487,2.1524,2.1483,2.156,2.1562,2.1543,2.1595,2.1592,2.1645,2.1581,2.1583,2.1584,0,2.0837,2.0895,2.0989,2.1061,2.1086,2.1132,2.1199,2.1249,2.1311,2.1335,2.1382,2.1408,2.1471,2.1458,2.1546,2.1517,2.1551,2.1577,2.158,2.159,2.1576,2.1607,2.1662,2.1671,2.1597,2.1596,2.1595,0,2.085,2.0953,2.1022,2.1053,2.1138,2.117,2.1207,2.1267,2.1307,2.1365,2.1391,2.1456,2.1492,2.1542,2.1584,2.1571,2.1668,2.1659,2.169,2.1689,2.171,2.1709,2.1773,2.173,2.173,2.1729,2.1729,0,2.0906,2.0963,2.1029,2.1072,2.1136,2.1181,2.1243,2.1282,2.1335,2.1386,2.1415,2.1462,2.1515,2.1568,2.1602,2.1669,2.1685,2.1707,2.1715,2.1705,2.1702,2.1728,2.1726,2.1732,2.1731,2.1731,2.173,0,2.0933,2.098,2.1058,2.1132,2.1152,2.1196,2.126,2.1302,2.134,2.1404,2.1421,2.148,2.1545,2.1592,2.1675,2.1698,2.177,2.1778,2.175,2.1754,2.1783,2.178,2.1867,2.1881,2.1827,2.1828,2.1828,0,2.0966,2.1011,2.1089,2.1125,2.1162,2.122,2.126,2.1305,2.1346,2.1419,2.1453,2.152,2.1576,2.1677,2.1728,2.1791,2.1802,2.1828,2.1812,2.18,2.1803,2.1801,2.1805,2.1831,2.1831,2.1831,2.1832,0,2.1021,2.1041,2.1099,2.1164,2.1211,2.1264,2.1318,2.1346,2.1401,2.1445,2.1511,2.1555,2.1639,2.1705,2.1774,2.1812,2.1831,2.1836,2.1847,2.1837,2.1819,2.183,2.1757,2.1834,2.1834,2.1834,2.1834,2.1833,2.1053,2.1093,2.1155,2.1218,2.1263,2.1312,2.1356,2.1399,2.1455,2.1528,2.1551,2.1619,2.1679,2.1773,2.1812,2.1866,2.1865,2.1881,2.1885,2.1888,2.1888,2.1809,2.1879,2.1879,2.1879,2.1879,2.1879,0,2.1109,2.115,2.1207,2.1281,2.1331,2.1343,2.1404,2.1444,2.1504,2.1558,2.1612,2.1689,2.1752,2.1807,2.1873,2.1906,2.1916,2.1922,2.192,2.1929,2.1885,2.1869,2.1912,2.1912,2.1912,2.1912,2.1912,2.1912,2.1144,2.1214,2.1242,2.1334,2.1375,2.1442,2.1476,2.1521,2.1565,2.1649,2.1702,2.1737,2.1791,2.1861,2.192,2.1935,2.1958,2.1961,2.1978,2.1936,2.1932,2.1928,2.1914,2.1966,2.1966,2.2018,2.2018,2.2019]}]]